FW0800 Weather Reports


time (UTC)temp
C
wind
direction
speed
KPH
gust
KPH
rain 1hr
cm
rain 24hr
cm
rain mn
cm
humidity
%
barometer
mb
20260502212520 19 268 8.0 24.1 0.00 0.00 0.00 31 1013.6
20260502205520 20 275 9.7 22.5 0.00 0.00 0.00 31 1014.0
20260502202520 20 170 11.3 25.7 0.00 0.00 0.00 32 1014.5
20260502195519 19 206 9.7 22.5 0.00 0.00 0.00 31 1015.3
20260502185519 17 297 9.7 29.0 0.00 0.00 0.00 32 1016.5
20260502182518 17 248 11.3 24.1 0.00 0.00 0.00 33 1017.0
20260502162517 15 213 9.7 25.7 0.00 0.00 0.00 36 1018.9
20260502122503 -1 332 0.0 0.0 0.00 0.00 0.00 94 1021.0
20260502115503 -2 332 0.0 1.6 0.00 0.00 0.00 92 1020.7
20260502112504 -2 332 0.0 3.2 0.00 0.00 0.00 91 1020.8
20260502102459 -2 332 0.0 1.6 0.00 0.00 0.00 91 1020.6
20260502065457 -1 332 0.0 0.0 0.00 0.00 0.00 85 1020.5
20260502062456 -1 331 0.0 0.0 0.00 0.00 0.00 83 1020.8
20260502055455 0 331 0.0 0.0 0.00 0.00 0.00 81 1020.7
20260502052453 0 332 0.0 0.0 0.00 0.00 0.00 81 1020.8
20260502045451 0 331 0.0 0.0 0.00 0.00 0.00 75 1020.9
20260502042452 1 331 0.0 0.0 0.00 0.00 0.00 74 1020.7
20260502035445 1 331 0.0 0.0 0.00 0.00 0.00 71 1020.8
20260502032446 2 332 0.0 0.0 0.00 0.00 0.00 67 1020.8
20260502025445 4 331 0.0 0.0 0.00 0.00 0.00 63 1020.8
20260502022441 5 332 0.0 0.0 0.00 0.00 0.00 59 1020.8
20260502015441 7 331 0.0 3.2 0.00 0.00 0.00 53 1020.6
20260502002441 11 332 0.0 1.6 0.00 0.00 0.00 36 1020.2
20260501235440 11 332 3.2 9.7 0.00 0.00 0.00 33 1020.2
20260501232440 12 336 4.8 11.3 0.00 0.00 0.00 31 1020.2
20260501225440 12 304 3.2 9.7 0.00 0.00 0.00 31 1020.2
20260501222441 13 82 4.8 16.1 0.00 0.00 0.00 34 1020.2
20260501215441 12 55 3.2 12.9 0.00 0.00 0.00 31 1020.4